Wind_Speed
6 6 6 6 6 6 7 7 7 7 7 7 8 8 8 8 7 7 7 7 8 7 8 8 8 8 8 9 9 9 9 10 10 11 11 11 11 11 11 12 13 13 13
6 6 6 6 6 6 7 7 8 8 8 8 8 8 8 8 8 8 8 8 8 8 8 8 8 8 8 9 9 9 10 11 11 12 12 12 11 12 10 10 11 13 13
6 6 6 6 6 6 7 8 8 8 8 8 8 8 8 8 8 8 8 8 8 8 8 8 7 8 8 8 9 9 10 10 11 12 12 12 12 12 12 11 11 12 12
6 6 6 6 7 7 7 8 7 8 8 8 8 9 8 8 9 9 9 9 9 9 8 8 8 8 8 8 9 10 11 11 11 11 11 11 11 12 12 12 12 13 13
6 6 6 7 7 7 7 8 7 7 8 8 9 9 9 9 9 9 9 9 9 9 9 10 10 9 9 9 9 10 11 11 11 10 11 11 11 11 11 12 13 13 13
7 7 7 7 7 7 7 8 8 8 8 8 8 8 9 9 10 10 10 10 10 10 10 10 10 10 11 11 10 10 11 11 11 11 12 12 12 12 12 12 12 13 13
9 9 8 8 8 8 8 8 8 8 8 8 8 8 8 9 9 10 10 11 11 11 11 11 11 11 11 11 11 11 10 11 11 12 12 13 12 12 13 12 12 13 13
9 9 9 9 9 9 9 8 8 9 9 9 9 9 9 9 10 10 11 11 12 12 12 12 12 12 12 12 11 11 11 12 11 12 13 13 13 13 13 14 14 14 13
10 10 10 10 10 10 9 9 9 9 9 9 10 10 10 10 10 11 11 11 11 12 13 13 12 13 13 12 12 12 12 12 12 12 13 13 13 13 14 14 13 14 13
11 11 11 11 10 10 10 9 9 9 9 9 10 10 10 10 10 11 11 12 12 12 12 12 13 13 13 13 13 13 13 12 11 12 12 13 13 14 14 14 14 14 13
11 11 10 10 10 10 9 9 9 10 10 10 10 10 10 10 11 11 12 12 12 12 12 12 13 13 13 14 14 13 12 12 12 12 12 13 13 13 13 14 14 15 15
12 11 11 11 11 11 10 10 10 10 10 10 11 11 11 11 12 12 13 13 13 14 14 14 13 13 14 14 13 13 13 12 12 12 12 13 13 13 12 13 13 13 13
12 12 12 12 12 11 11 11 11 11 11 12 12 12 12 12 12 12 12 13 13 14 14 14 14 14 13 13 13 13 13 13 12 12 12 12 12 12 12 12 12 13 14
13 12 13 13 13 12 12 12 12 13 13 13 13 13 13 13 13 13 13 13 14 14 14 14 14 14 14 14 13 13 13 14 14 13 13 12 12 12 12 13 14 14 15
14 14 14 14 14 14 14 14 14 15 15 15 15 14 14 14 14 13 13 14 14 14 14 14 14 14 15 14 14 14 14 14 15 15 15 14 13 13 14 14 14 15 15
15 15 15 15 15 15 15 15 15 15 15 15 15 15 15 15 15 15 15 14 14 14 14 14 15 14 15 15 15 15 15 15 15 15 15 15 15 14 14 15 15 15 16
16 16 16 16 16 15 15 15 16 16 16 15 15 15 16 16 16 16 15 15 15 15 15 15 15 15 15 15 16 16 15 15 15 15 15 15 15 15 16 16 16 16 17
17 17 16 16 16 16 16 16 17 16 16 16 16 16 16 16 16 16 15 15 15 15 16 16 16 16 16 16 16 16 16 15 15 15 15 16 16 16 16 16 16 17 17
18 17 17 17 17 17 17 17 18 17 17 17 17 17 17 17 17 17 16 16 15 15 16 16 16 16 16 16 16 16 17 17 16 16 16 17 17 17 17 17 17 18 18
18 18 18 18 18 18 18 18 19 19 19 19 18 18 18 18 18 18 17 17 16 16 16 16 16 16 16 17 17 17 17 18 18 18 18 18 18 18 18 18 19 19 19
19 19 19 19 19 19 19 19 19 19 19 20 19 19 19 19 19 19 18 17 17 17 17 17 16 16 17 17 17 18 18 19 19 19 19 19 19 19 20 20 20 20 20
19 19 19 19 19 19 19 19 20 20 20 20 20 20 20 20 20 20 19 18 18 18 18 18 18 18 17 18 18 19 19 20 20 21 21 21 21 20 20 21 21 21 21
20 20 20 20 20 20 20 20 20 21 21 21 21 21 21 22 22 22 21 20 20 20 20 20 20 19 19 19 19 19 20 21 21 22 22 22 22 22 22 22 22 23 23
22 21 21 21 21 21 21 21 22 22 22 22 22 22 22 22 22 22 22 22 22 21 21 21 21 21 21 21 21 21 21 22 22 23 23 23 23 24 24 24 24 24 25
23 22 22 22 22 22 22 23 23 23 23 23 23 23 23 23 23 23 23 23 22 22 22 22 22 22 23 23 23 23 23 23 23 24 24 25 25 25 26 26 26 26 26
24 24 24 24 24 24 24 24 24 24 24 24 24 24 24 24 23 24 24 24 24 24 24 24 24 24 24 24 24 24 24 24 25 25 26 26 26 26 26 26 26 27 27
Wind_Direction
274 276 278 273 270 267 268 273 276 276 272 272 276 283 282 280 278 273 271 273 276 274 277 280 273 278 270 262 265 267 264 264 263 260 257 255 257 259 261 258 248 243 244
274 276 278 277 270 268 271 270 272 273 273 276 277 282 281 276 273 269 268 269 272 272 272 276 277 280 278 270 268 267 262 259 260 260 259 255 257 258 258 257 249 245 248
270 275 277 273 271 269 273 273 272 272 278 277 277 280 281 276 270 268 264 268 270 271 269 269 272 276 279 276 275 271 267 262 259 262 257 258 257 259 259 258 254 251 253
271 276 277 272 272 271 275 278 276 276 279 279 279 280 281 277 270 266 263 266 267 269 268 267 270 275 277 276 274 274 273 269 269 267 264 264 261 259 260 260 258 257 258
266 271 276 277 277 274 274 277 279 280 280 279 280 279 276 273 269 267 264 265 267 269 270 269 270 274 273 274 274 275 274 272 272 272 270 267 266 264 262 261 262 261 262
272 274 272 276 279 279 278 280 278 279 279 281 283 280 274 270 267 264 264 265 267 268 270 271 272 273 274 274 273 275 273 273 275 273 272 272 268 268 264 265 266 263 261
273 275 274 277 279 279 278 280 277 276 278 280 282 279 277 273 269 267 265 266 268 269 268 270 273 274 275 272 271 273 272 274 277 275 273 273 271 267 268 268 267 265 262
269 272 273 274 275 274 275 275 274 276 278 280 283 283 278 275 272 270 269 270 270 270 269 271 272 273 275 274 271 272 275 276 278 275 273 272 271 268 269 270 268 265 266
270 273 274 273 272 270 269 272 276 276 278 281 283 284 281 276 274 274 272 273 274 274 273 271 272 271 272 274 271 270 273 276 277 276 273 272 270 268 269 269 268 267 266
272 274 274 272 272 271 269 272 277 279 282 284 285 284 283 280 275 273 275 275 275 274 273 272 271 270 271 273 272 271 271 273 275 273 273 274 274 273 271 268 266 265 264
270 272 273 273 272 271 271 272 277 281 283 285 285 284 283 283 283 277 275 274 273 272 274 274 270 267 271 270 271 268 268 267 271 273 272 273 275 272 270 267 264 263 262
266 267 268 269 268 268 270 273 278 281 283 285 285 283 281 280 281 279 277 274 271 272 274 273 270 269 271 270 269 266 266 266 271 275 276 274 272 272 271 267 264 263 261
266 269 267 267 271 271 270 272 276 279 282 285 284 281 280 282 280 279 278 275 271 271 273 273 270 272 272 269 269 266 265 266 270 274 274 276 276 276 274 270 269 268 266
267 268 269 270 271 270 271 272 275 277 280 282 282 280 279 282 282 280 278 275 274 274 273 273 272 270 269 270 270 269 267 267 269 272 274 278 276 275 276 277 275 273 272
267 269 270 271 270 269 272 273 275 277 279 279 279 279 279 281 282 283 279 278 276 275 272 271 270 268 267 268 268 269 269 270 272 272 273 277 276 276 277 277 280 278 277
265 268 269 269 270 271 273 275 276 278 280 279 280 281 280 280 281 280 280 278 276 274 272 270 270 270 267 267 267 268 268 270 272 274 275 275 276 276 276 275 275 275 276
266 266 268 269 270 271 272 275 277 278 280 279 279 280 280 279 280 279 278 277 275 274 272 270 270 269 268 269 270 270 268 269 270 271 273 274 276 275 276 274 274 274 276
265 265 267 268 268 270 273 274 276 279 280 279 280 280 280 279 279 278 276 275 275 274 274 272 270 269 270 269 269 270 270 269 270 270 271 273 275 276 276 276 276 275 276
264 267 270 270 269 270 273 275 276 278 278 279 280 280 279 278 277 277 276 275 274 273 273 272 270 269 270 269 269 268 268 266 268 269 270 272 274 275 277 277 278 279 279
264 267 270 270 270 271 273 275 277 279 278 278 280 280 279 277 276 275 274 271 272 271 272 272 272 271 270 270 269 268 268 266 269 269 271 273 274 275 277 278 279 279 281
263 266 268 269 269 271 273 275 276 277 278 278 279 280 280 278 276 275 273 271 272 271 271 272 272 272 270 270 270 269 269 267 269 270 272 273 275 275 276 277 278 279 281
264 266 267 268 270 271 272 274 276 276 277 278 278 278 279 278 275 272 271 271 271 271 270 270 270 270 271 271 271 272 271 269 269 270 273 274 275 275 276 276 276 277 279
266 267 267 269 269 270 272 274 276 277 276 276 276 277 276 275 275 272 270 270 271 271 270 269 268 269 271 272 273 273 272 270 271 272 273 273 274 274 276 276 276 276 277
266 267 267 267 268 270 272 274 277 276 276 276 276 276 275 274 274 273 270 269 271 271 270 270 269 269 271 272 273 275 274 272 272 273 272 273 274 275 276 278 277 277 278
266 266 266 267 267 269 271 274 276 277 277 276 274 274 275 275 274 272 270 270 271 270 270 270 270 270 271 272 273 274 274 274 274 274 274 274 275 276 276 277 278 278 279
267 267 267 267 268 269 273 275 275 275 276 276 275 274 274 274 272 271 269 269 270 271 271 271 271 271 272 273 273 274 275 275 276 275 275 275 276 276 276 278 279 280 281
Height
5868 5867 5867 5867 5866 5866 5866 5866 5866 5865 5865 5865 5864 5864 5863 5863 5862 5862 5861 5861 5861 5860 5860 5859 5858 5858 5857 5857 5857 5856 5856 5856 5856 5856 5856 5855 5855 5854 5852 5849 5849 5853 5855
5866 5866 5866 5865 5865 5865 5865 5864 5864 5864 5863 5863 5863 5862 5862 5861 5861 5860 5860 5859 5859 5858 5858 5857 5857 5856 5855 5855 5855 5854 5854 5854 5854 5854 5853 5853 5853 5852 5851 5848 5848 5850 5853
5865 5864 5864 5864 5863 5863 5863 5863 5862 5862 5862 5861 5861 5860 5860 5859 5859 5858 5858 5857 5857 5856 5856 5855 5855 5854 5853 5853 5853 5852 5852 5851 5851 5851 5851 5851 5850 5850 5849 5849 5848 5850 5851
5863 5863 5863 5862 5862 5862 5861 5861 5861 5860 5860 5859 5859 5858 5858 5857 5857 5856 5856 5855 5855 5855 5854 5854 5853 5852 5852 5851 5851 5850 5849 5849 5849 5849 5848 5848 5848 5848 5848 5848 5848 5848 5848
5862 5862 5861 5861 5860 5860 5860 5859 5859 5858 5858 5858 5857 5856 5856 5855 5855 5854 5854 5853 5853 5852 5852 5851 5851 5850 5850 5849 5849 5848 5847 5847 5847 5846 5846 5846 5845 5845 5845 5845 5845 5846 5846
5860 5860 5860 5859 5859 5858 5858 5858 5857 5857 5856 5856 5855 5854 5853 5853 5852 5852 5852 5851 5850 5850 5849 5849 5849 5848 5847 5847 5846 5846 5845 5845 5844 5844 5844 5843 5843 5843 5843 5843 5843 5843 5843
5858 5858 5858 5857 5857 5857 5856 5856 5855 5854 5854 5854 5853 5852 5851 5851 5850 5850 5849 5849 5848 5847 5847 5846 5846 5845 5845 5844 5844 5843 5842 5842 5842 5841 5841 5840 5840 5840 5840 5840 5840 5840 5840
5856 5856 5856 5855 5855 5855 5854 5854 5853 5852 5852 5851 5851 5850 5850 5849 5848 5847 5847 5846 5846 5845 5844 5843 5843 5842 5842 5841 5841 5840 5840 5839 5839 5838 5838 5838 5837 5837 5837 5837 5837 5837 5836
5853 5853 5853 5853 5852 5852 5852 5851 5851 5850 5849 5849 5848 5848 5847 5846 5846 5845 5844 5843 5843 5842 5841 5840 5840 5839 5839 5838 5838 5837 5837 5837 5836 5835 5835 5835 5834 5834 5834 5833 5833 5833 5833
5851 5850 5850 5850 5849 5849 5849 5849 5848 5848 5847 5846 5845 5845 5844 5843 5843 5842 5841 5840 5840 5839 5838 5837 5837 5836 5836 5835 5835 5834 5834 5834 5833 5832 5832 5831 5831 5830 5830 5829 5829 5829 5829
5848 5847 5847 5847 5847 5846 5846 5846 5845 5845 5844 5844 5843 5842 5841 5840 5839 5839 5838 5838 5837 5836 5835 5834 5833 5833 5833 5832 5832 5831 5831 5830 5830 5829 5829 5828 5827 5827 5826 5826 5826 5825 5825
5844 5844 5844 5844 5844 5843 5843 5843 5842 5842 5841 5841 5840 5839 5838 5837 5836 5835 5835 5834 5833 5832 5831 5831 5830 5830 5829 5829 5828 5828 5827 5827 5827 5826 5826 5825 5824 5824 5823 5823 5823 5822 5821
5841 5841 5841 5840 5840 5840 5840 5839 5839 5839 5838 5837 5836 5835 5834 5833 5833 5832 5831 5830 5829 5829 5828 5827 5826 5826 5826 5825 5825 5824 5824 5824 5823 5823 5822 5822 5821 5820 5820 5820 5819 5819 5818
5837 5837 5837 5837 5836 5836 5836 5835 5835 5834 5834 5833 5832 5831 5830 5830 5829 5828 5827 5826 5826 5825 5824 5824 5823 5822 5822 5821 5821 5821 5820 5820 5820 5819 5819 5818 5818 5817 5817 5817 5816 5815 5815
5833 5833 5833 5832 5832 5832 5831 5831 5830 5830 5829 5829 5828 5827 5826 5825 5824 5824 5823 5822 5822 5821 5821 5820 5819 5818 5817 5817 5817 5817 5817 5816 5816 5816 5815 5815 5814 5814 5813 5813 5812 5812 5811
5828 5828 5828 5828 5827 5827 5827 5826 5826 5825 5825 5824 5823 5822 5822 5821 5820 5819 5818 5818 5817 5817 5816 5816 5815 5814 5814 5813 5813 5813 5812 5812 5812 5812 5811 5811 5810 5810 5809 5809 5808 5808 5807
5823 5823 5823 5823 5823 5822 5822 5822 5821 5821 5820 5820 5819 5818 5817 5816 5815 5815 5814 5813 5813 5812 5812 5811 5811 5810 5810 5809 5809 5808 5808 5808 5808 5808 5807 5807 5806 5806 5805 5804 5804 5804 5803
5819 5819 5819 5818 5818 5818 5817 5817 5816 5816 5815 5815 5814 5813 5812 5811 5811 5810 5809 5809 5808 5807 5807 5806 5806 5805 5805 5805 5804 5804 5804 5804 5803 5803 5803 5802 5802 5801 5800 5800 5799 5799 5798
5814 5814 5814 5814 5813 5813 5813 5812 5812 5811 5810 5810 5809 5808 5807 5807 5806 5805 5804 5804 5803 5802 5802 5802 5801 5801 5800 5800 5800 5799 5799 5799 5799 5798 5798 5798 5797 5796 5796 5795 5794 5794 5793
5809 5809 5809 5809 5808 5808 5808 5807 5807 5806 5805 5805 5804 5803 5802 5802 5801 5800 5799 5799 5798 5797 5797 5797 5796 5796 5795 5795 5794 5794 5794 5794 5794 5793 5793 5792 5792 5791 5790 5790 5789 5788 5787
5804 5804 5804 5804 5803 5803 5803 5802 5802 5801 5800 5799 5799 5798 5797 5796 5795 5795 5794 5793 5793 5792 5792 5791 5791 5790 5790 5789 5789 5789 5789 5788 5788 5788 5787 5787 5786 5786 5785 5784 5783 5782 5782
5798 5798 5798 5798 5798 5798 5797 5797 5796 5795 5794 5794 5793 5792 5791 5790 5790 5789 5788 5788 5787 5787 5786 5786 5785 5785 5784 5784 5784 5783 5783 5783 5783 5782 5781 5781 5780 5779 5779 5778 5777 5776 5775
5792 5792 5792 5792 5792 5792 5792 5791 5790 5789 5789 5788 5787 5786 5785 5784 5784 5783 5782 5782 5781 5780 5780 5780 5779 5779 5779 5778 5778 5777 5777 5776 5776 5775 5775 5774 5774 5773 5772 5771 5770 5770 5768
5786 5786 5786 5786 5785 5785 5785 5785 5784 5783 5782 5781 5780 5780 5779 5778 5777 5776 5776 5775 5775 5774 5774 5773 5773 5772 5772 5771 5771 5771 5770 5770 5769 5768 5767 5767 5767 5766 5765 5764 5763 5762 5761
5779 5780 5779 5779 5779 5779 5778 5778 5777 5776 5775 5775 5774 5773 5772 5771 5771 5770 5769 5769 5768 5768 5767 5767 5766 5766 5765 5764 5764 5763 5763 5762 5762 5761 5760 5760 5759 5758 5758 5757 5756 5754 5753
5772 5773 5772 5772 5772 5772 5771 5771 5770 5769 5768 5767 5767 5766 5765 5764 5763 5762 5762 5761 5761 5761 5760 5760 5759 5758 5758 5757 5756 5756 5755 5755 5754 5754 5753 5752 5751 5750 5750 5749 5747 5746 5745